Wind_Speed
8 8 6 7 9 10 11 11 12 11 10 9 8 7 7 7 7 7 6 5 5 6 7 8 8 9 10 10 12 13 15 16 17 18 18 18 18 19 21 21 19 17 18 17 16 15 14 13 12 12 12 12 11 12 11 11 10 10 9 9 9 8 8 8 8 8 8 8 8 7 7 8 9 9 10 11 12 13 14 14 14 15 15 15 16
7 8 8 8 9 10 12 12 12 12 11 10 9 8 7 7 7 6 6 5 4 5 6 6 7 8 8 9 11 12 13 15 15 16 16 17 18 19 21 21 20 18 18 17 15 14 13 13 12 12 12 12 12 11 11 10 10 9 9 8 8 8 8 8 8 8 8 7 7 8 8 9 10 10 11 11 12 13 14 14 14 15 15 16 17
6 8 9 9 10 11 13 13 13 13 12 11 10 8 8 7 7 6 5 5 4 4 4 5 6 6 7 8 10 11 11 13 14 15 15 16 18 19 20 20 20 18 17 16 15 14 13 13 12 12 12 12 12 11 10 10 10 9 9 8 8 7 8 8 8 8 8 8 8 9 10 10 10 10 11 12 13 14 14 14 15 15 16 17 18
6 8 9 10 11 11 13 14 14 14 13 12 11 9 8 7 6 6 6 5 4 3 3 4 5 5 5 7 9 9 10 11 12 14 15 16 18 19 19 19 19 19 17 16 15 14 13 12 11 11 11 11 11 10 10 10 10 9 9 9 8 8 8 8 8 8 9 9 9 10 12 11 11 11 11 12 13 14 15 15 16 17 17 19 20
7 9 9 11 11 11 13 15 15 14 14 13 12 11 9 8 7 6 6 5 4 3 3 3 4 4 4 6 7 7 8 10 11 13 14 15 16 17 18 18 19 19 18 16 15 13 12 11 11 11 11 11 11 10 10 10 10 9 9 8 8 8 8 9 9 10 10 9 10 12 13 12 12 12 12 13 14 15 16 16 17 18 20 22 24
8 9 10 11 10 10 12 14 16 16 15 15 13 12 10 8 7 7 7 6 5 4 3 2 3 3 3 4 6 6 6 9 10 12 13 14 15 16 17 18 18 18 18 16 15 14 12 11 11 11 11 11 10 10 10 10 9 9 8 8 8 8 9 10 10 11 10 11 11 12 12 13 13 13 13 14 16 17 17 18 20 22 24 26 26
8 9 10 11 10 10 11 14 16 17 16 16 14 13 11 10 8 8 7 7 6 5 3 2 2 2 2 3 4 4 5 8 9 11 12 13 13 14 15 17 17 17 17 16 16 15 13 12 12 11 11 11 10 10 10 9 8 8 8 8 8 9 10 10 10 11 10 11 12 12 12 14 14 14 15 16 17 19 21 23 24 25 26 26 26
7 8 9 10 10 10 11 14 16 17 17 16 15 14 12 11 10 9 8 7 6 5 4 3 2 2 1 1 3 3 4 7 8 9 11 11 12 13 14 15 16 16 17 16 16 15 14 13 12 11 11 11 10 10 9 9 8 8 9 9 10 10 11 12 12 12 12 12 12 13 14 15 15 16 17 19 21 24 26 26 26 26 26 26 26
8 8 8 8 9 11 11 14 16 18 18 17 16 14 13 12 10 9 8 7 6 5 4 4 3 2 2 1 2 2 3 5 7 8 9 10 10 11 12 14 15 15 16 16 16 15 15 14 14 13 12 11 11 11 11 11 11 12 12 12 13 13 14 16 16 16 17 15 14 15 16 17 18 20 23 24 26 26 26 26 26 25 25 25 24
7 8 8 8 9 10 12 14 17 18 18 17 16 14 13 12 10 9 8 7 6 6 5 5 4 3 3 2 1 2 2 4 5 7 8 8 8 9 10 12 13 14 15 15 15 15 15 15 15 15 14 14 14 15 15 16 16 16 17 17 18 19 20 21 22 22 22 20 18 20 21 22 23 24 26 26 26 25 25 25 25 24 24 23 22
6 8 9 9 10 11 12 15 17 17 17 17 15 14 13 11 10 9 8 8 7 6 6 6 5 5 4 3 2 2 2 2 4 6 7 7 7 7 8 10 12 13 14 14 14 14 15 16 16 16 15 16 17 18 18 18 19 19 20 21 21 23 23 22 25 25 24 23 22 23 24 24 24 24 25 24 24 24 24 23 23 22 21 20 20
6 8 9 10 11 12 13 15 16 17 17 16 15 14 13 12 11 10 9 8 7 7 6 7 6 6 5 5 4 3 3 2 3 5 6 7 6 5 6 9 11 12 12 13 13 14 15 15 16 16 16 16 17 18 18 19 19 20 21 21 22 22 20 20 23 23 22 22 22 22 22 22 22 23 23 23 22 22 22 21 20 19 18 18 17
5 6 8 10 11 13 14 15 16 17 16 16 15 14 13 12 11 10 9 8 7 7 7 8 7 7 7 6 5 4 3 3 3 4 5 6 5 4 4 7 9 10 11 12 12 13 14 14 15 15 15 15 16 17 17 18 18 19 19 19 21 20 19 21 23 21 21 21 20 20 20 21 21 21 20 20 20 19 19 18 17 17 16 15 15
5 4 6 9 11 13 14 15 16 16 16 15 14 14 12 11 11 9 9 8 8 8 8 8 8 8 8 7 7 5 4 4 3 4 5 5 5 3 2 4 8 9 10 10 11 12 12 13 14 14 14 14 15 15 16 17 17 18 18 18 19 18 18 21 21 20 20 19 19 18 18 19 19 18 18 17 17 16 16 16 15 14 14 13 13
6 4 5 8 11 13 15 15 16 16 15 14 14 13 12 11 9 9 8 8 8 9 9 9 9 9 9 9 8 6 5 5 4 4 5 5 6 4 1 2 5 8 9 9 10 10 11 12 12 13 13 14 14 14 15 15 16 16 17 17 16 14 15 19 19 17 18 17 17 16 16 16 16 16 15 14 14 14 13 13 12 12 12 12 11
6 5 5 8 11 13 14 15 15 15 14 13 13 12 11 10 9 9 9 9 9 10 10 11 11 11 11 10 8 7 7 6 5 4 5 6 6 5 2 1 2 6 8 8 9 9 10 11 11 12 12 13 13 13 13 13 14 14 15 16 14 12 12 16 17 16 16 15 15 14 13 13 13 13 12 12 11 11 11 10 10 10 10 10 9
6 6 6 9 11 13 13 13 13 14 13 13 12 12 11 11 10 10 10 10 11 11 11 12 12 12 11 10 9 9 8 8 7 6 5 6 7 7 5 2 1 4 6 7 7 8 9 10 10 11 11 11 12 12 12 12 12 12 13 14 13 11 11 14 15 14 14 13 12 12 11 11 10 10 10 9 9 9 9 8 8 8 8 7 7
7 7 7 8 10 11 12 12 13 13 12 12 12 12 12 11 11 11 11 11 11 11 12 12 12 12 11 11 10 10 9 9 8 8 7 6 7 7 7 5 3 3 5 5 6 7 8 8 9 9 10 10 10 11 11 11 10 10 10 11 11 10 10 12 13 12 11 10 10 9 8 8 8 8 7 7 7 6 6 6 6 5 5 5 5
7 8 8 8 9 9 10 11 12 12 12 12 12 12 12 12 11 11 12 12 12 12 12 12 12 12 12 11 11 10 10 10 10 9 8 8 8 8 8 7 5 4 4 5 5 6 7 7 8 8 9 9 8 8 9 9 8 8 8 8 8 8 7 8 10 9 8 8 8 7 6 5 5 5 5 5 5 5 4 4 3 3 3 3 3
8 9 9 8 10 9 8 10 10 11 11 12 11 12 12 11 12 12 12 12 12 12 11 12 11 12 11 11 11 10 10 11 11 11 10 9 9 9 9 8 7 6 5 5 5 5 6 6 7 7 8 8 7 7 6 6 6 6 6 6 6 6 5 6 7 7 6 6 5 5 5 4 3 3 3 3 3 2 2 1 1 1 1 2 3
9 9 10 12 12 9 9 10 10 10 10 10 11 12 12 12 12 12 12 12 12 12 11 11 11 11 11 11 10 10 11 11 12 13 12 11 10 10 10 10 9 8 7 6 6 6 6 6 7 7 8 7 7 6 5 5 5 5 4 4 5 4 4 4 5 5 4 4 3 3 3 2 2 1 1 1 1 1 1 1 2 3 3 4 4
9 10 12 13 11 8 11 12 10 9 9 10 11 12 13 13 12 12 12 11 11 11 11 11 11 11 11 10 10 10 10 11 13 14 13 13 12 11 11 11 10 10 9 8 8 8 8 7 7 7 8 8 8 7 6 6 5 5 4 4 4 4 4 3 3 4 3 3 2 2 2 2 2 2 2 2 3 4 4 4 5 6 6 7 7
9 10 12 13 11 10 12 13 10 10 11 12 11 12 12 12 12 11 11 10 11 11 11 11 11 10 10 9 9 8 9 10 11 12 14 15 14 13 12 12 11 11 10 10 10 9 9 9 8 8 9 9 9 8 8 7 6 6 5 4 4 4 4 4 3 3 4 4 3 3 4 4 5 5 6 6 7 7 8 8 8 9 9 10 10
10 10 12 12 12 12 13 14 11 11 12 12 12 12 11 11 12 11 10 10 10 10 10 10 9 9 9 8 8 8 8 10 10 10 12 15 16 16 14 13 13 12 12 12 12 12 11 10 10 9 10 10 10 9 9 8 7 7 6 6 5 5 5 5 5 6 5 6 6 6 7 7 8 9 9 10 10 11 11 11 12 12 13 13 13
11 10 11 12 13 13 14 13 11 12 13 11 10 11 11 12 13 12 11 11 11 10 10 9 9 10 9 7 7 9 10 11 10 10 11 13 16 17 17 15 15 14 14 14 14 14 13 12 12 11 12 12 11 10 10 9 9 8 8 7 7 7 8 8 8 8 8 8 9 9 10 11 11 12 13 13 13 14 14 14 15 15 15 15 16
10 10 10 11 12 11 12 12 12 13 12 11 10 11 11 12 12 11 12 13 11 9 8 9 9 10 8 5 7 10 10 10 10 11 12 12 14 17 17 17 17 16 15 15 16 15 15 15 14 14 15 14 12 12 11 10 10 10 9 9 9 9 10 10 10 10 10 10 11 11 12 13 14 15 15 16 16 17 17 18 18 18 17 17 18
9 9 10 10 10 10 11 12 12 12 12 12 12 12 12 12 12 12 13 11 9 9 9 9 9 10 9 5 5 9 9 10 11 12 12 11 13 15 14 16 16 16 16 16 17 17 17 17 16 17 17 15 14 14 13 12 12 12 11 11 11 11 11 11 12 12 12 12 13 14 15 16 17 17 18 18 18 19 19 19 19 20 21 20 20
10 8 10 11 9 10 12 12 11 11 12 12 13 13 12 12 11 10 9 7 7 9 7 8 8 7 7 5 6 10 10 10 11 12 13 12 13 13 13 13 12 14 16 18 19 18 17 18 18 18 18 16 16 16 16 15 15 14 14 13 12 12 12 12 14 15 14 14 15 16 17 17 18 18 19 19 18 19 20 20 21 21 21 21 20
10 9 9 9 8 8 9 9 10 10 10 10 10 10 9 8 7 6 5 4 6 5 4 5 5 5 6 6 8 10 9 7 10 12 13 13 13 14 14 13 11 13 15 18 19 17 16 18 18 19 19 17 17 18 18 17 17 17 16 14 14 14 14 15 15 16 16 15 15 17 18 18 18 18 18 18 18 19 20 20 20 19 19 18 18
10 9 8 8 8 7 6 7 8 8 8 7 5 6 7 6 5 4 4 4 5 4 5 6 6 6 8 8 9 11 9 7 10 13 12 13 15 14 13 13 13 13 14 17 19 16 17 19 19 20 19 18 18 19 18 19 19 18 17 16 15 15 15 16 15 16 17 17 15 16 17 17 17 17 17 18 18 18 18 18 17 16 15 15 15
11 9 9 9 9 8 7 8 8 8 9 9 9 9 9 7 6 6 3 2 3 3 4 5 5 6 8 9 11 11 12 10 11 12 12 14 15 13 12 12 13 13 14 16 17 17 19 20 20 20 19 19 20 19 19 20 20 20 18 17 16 16 16 16 16 16 17 18 17 16 17 16 16 16 17 17 16 16 15 15 14 13 12 11 12
11 10 12 11 8 6 6 6 6 6 8 10 10 9 9 7 7 6 5 4 3 3 4 5 5 6 8 10 12 12 14 13 12 13 14 16 15 13 13 13 13 13 14 15 16 18 20 20 21 21 21 21 22 20 20 20 21 21 19 18 17 16 16 16 16 17 17 18 17 16 15 15 16 17 16 15 14 13 13 13 12 11 10 9 10
11 11 11 11 8 6 7 6 6 5 6 9 10 9 9 8 7 6 5 5 4 4 4 5 6 7 9 11 12 14 15 15 15 15 17 19 18 16 15 15 14 14 15 15 15 17 19 20 21 21 22 22 22 21 20 20 21 21 19 18 18 17 17 16 17 17 17 16 16 15 14 14 15 15 15 13 12 12 12 12 11 10 10 9 10
10 10 9 9 8 7 6 7 7 6 7 8 8 9 9 9 8 7 7 6 6 5 5 6 7 7 9 11 13 15 15 16 17 18 19 21 22 20 19 17 15 15 17 16 15 17 19 20 20 21 22 22 22 21 21 21 21 21 19 19 18 17 17 16 16 17 16 14 14 14 15 15 14 13 13 12 12 12 11 11 11 10 10 10 10
8 7 6 5 6 6 6 6 7 7 8 9 9 8 9 9 9 9 9 8 7 6 6 7 8 8 9 11 13 15 15 16 18 19 19 20 22 22 22 22 18 16 17 18 17 18 19 19 19 21 22 22 22 22 21 21 21 20 20 19 18 17 17 16 16 16 14 13 14 14 14 13 13 13 12 11 11 11 11 11 10 10 10 10 10
5 4 3 4 5 7 6 6 7 8 9 9 9 9 9 10 10 11 11 11 10 9 9 9 10 11 11 12 14 15 16 16 18 19 20 21 22 21 21 25 23 18 18 20 18 18 19 19 20 21 22 22 22 22 22 22 21 20 20 19 18 18 17 16 15 14 13 13 14 14 13 12 12 12 11 10 10 11 11 11 10 10 10 9 9
3 1 2 3 5 6 7 7 7 8 9 9 9 9 9 10 10 12 12 13 13 12 11 10 12 13 13 15 16 17 17 17 18 19 20 21 22 21 21 25 26 21 21 21 19 20 20 18 19 21 22 23 22 22 22 22 21 20 19 19 18 18 16 15 15 14 13 14 14 13 12 11 12 12 11 11 11 11 11 11 10 10 10 9 9
2 2 1 2 3 5 6 7 6 7 8 8 9 9 10 10 11 13 13 14 14 14 14 13 14 15 16 18 19 19 19 18 19 19 21 21 21 22 21 23 26 25 25 22 20 22 21 17 19 21 21 23 23 22 22 21 21 20 20 20 19 18 16 15 15 14 14 14 13 12 11 11 12 12 12 11 11 10 10 10 10 10 10 9 9
4 3 2 2 2 4 7 8 8 9 9 9 11 11 11 12 13 15 15 16 15 15 15 15 15 17 18 20 21 22 21 20 20 19 20 21 22 23 23 22 24 26 26 25 22 22 21 19 20 21 21 22 23 23 22 21 21 21 20 20 19 18 16 16 15 15 14 13 12 11 11 11 12 12 11 10 9 8 8 8 9 9 9 9 9
5 4 3 3 4 6 8 9 10 11 12 12 13 13 12 13 15 17 17 17 17 16 16 16 16 18 20 21 23 23 23 22 21 19 20 22 22 23 24 23 24 25 27 28 25 23 23 21 20 22 22 22 23 23 22 22 21 21 21 20 19 17 16 16 16 15 14 12 11 11 10 10 11 12 11 9 7 7 7 7 7 8 8 9 9
6 5 5 5 7 9 9 11 12 13 13 14 14 14 14 14 16 18 18 19 19 19 18 18 18 21 22 23 24 23 22 23 22 19 20 23 23 24 25 25 25 25 27 28 27 27 28 25 21 23 24 23 22 22 22 22 22 21 21 20 19 17 17 17 17 16 14 12 11 10 10 10 11 12 11 9 8 7 7 7 7 8 8 9 9
10 9 9 9 9 11 11 12 13 13 14 15 16 16 17 18 18 19 19 20 21 20 19 20 20 22 22 22 23 23 21 23 24 22 21 23 25 26 26 26 26 27 27 28 30 32 33 29 24 24 24 23 23 23 23 22 22 21 19 19 19 17 17 17 17 16 13 12 11 10 10 11 11 12 11 9 8 7 7 7 7 8 9 8 8
13 12 11 11 11 13 13 14 13 14 14 15 16 18 19 20 21 21 22 22 23 21 20 19 19 20 21 20 22 23 22 24 26 25 24 24 26 27 28 28 28 28 28 29 32 33 35 34 28 24 24 25 24 23 23 23 21 20 19 18 17 17 17 17 17 15 13 13 12 11 11 11 12 12 12 9 8 7 7 7 7 7 8 8 8
15 14 13 12 13 14 15 15 14 15 15 15 16 18 19 20 21 22 23 22 22 22 22 21 20 21 21 21 22 23 23 23 26 27 26 25 27 29 29 29 29 28 27 27 31 33 34 34 29 25 25 25 25 24 24 24 23 21 20 18 18 18 17 17 17 15 14 14 12 11 11 12 12 12 12 10 8 8 8 7 7 7 8 8 8
16 15 15 14 15 15 15 15 15 16 15 15 16 17 18 19 20 22 23 22 22 23 23 23 23 22 21 22 23 23 23 24 27 28 28 27 28 30 30 30 29 29 27 27 29 32 32 32 29 27 26 24 24 24 24 24 25 24 21 20 19 18 17 16 16 15 15 14 12 12 12 12 13 12 12 11 9 9 9 8 7 7 8 8 8
16 16 16 16 17 17 16 17 17 17 16 15 16 16 17 18 19 21 23 23 23 24 24 24 24 24 24 24 24 24 25 26 27 29 29 28 28 30 31 31 31 31 30 28 29 32 32 30 30 29 27 24 24 24 23 24 25 24 23 22 20 18 16 16 16 14 14 14 14 14 13 13 13 13 13 12 10 10 9 8 7 7 8 9 8
17 17 17 18 18 18 18 18 18 18 17 16 17 17 16 17 18 19 22 23 25 26 26 25 26 27 27 26 25 26 27 27 28 29 29 29 29 29 29 30 32 33 31 29 29 31 30 29 29 30 27 23 23 24 23 24 24 24 23 23 21 18 18 18 16 14 14 15 14 13 13 14 13 13 14 13 12 11 9 8 7 7 9 9 9
18 19 19 19 19 19 18 18 18 19 18 18 18 17 16 17 18 19 20 22 25 27 28 27 28 28 28 27 27 28 29 29 29 29 29 29 30 29 27 29 31 31 31 30 30 30 29 29 29 29 27 23 24 25 24 25 25 23 23 23 21 19 19 19 17 16 15 14 14 14 14 15 14 14 15 15 14 12 11 10 9 9 10 10 8
18 18 19 18 17 17 17 17 17 17 18 18 17 18 17 17 19 20 20 20 22 25 27 29 29 29 28 28 28 28 29 31 31 30 29 29 29 28 26 27 28 29 29 29 29 29 29 29 29 29 27 25 26 27 27 28 26 23 23 22 21 20 20 19 18 18 16 14 14 14 15 15 15 15 16 15 14 13 11 11 11 11 11 10 9
18 17 16 15 14 15 15 15 16 16 17 18 18 18 19 19 20 21 21 21 22 24 27 30 31 30 29 30 30 30 30 31 32 31 28 27 27 27 25 24 24 24 26 27 26 29 31 30 29 30 28 27 28 28 30 30 26 24 24 22 21 21 21 20 19 18 17 16 15 15 16 15 15 15 16 15 15 14 12 12 13 12 11 10 11
15 14 12 12 12 13 14 15 16 17 18 19 19 19 20 21 22 22 22 23 24 26 28 30 32 32 31 32 33 33 33 32 32 31 27 25 24 25 24 22 20 19 24 26 24 27 30 29 28 28 29 29 28 29 32 30 26 25 24 23 22 21 22 21 20 19 18 18 17 16 16 15 15 15 16 16 15 14 14 14 14 12 12 12 12
Wind_Direction
192 192 195 204 205 205 207 213 215 207 197 191 186 174 161 150 138 128 116 107 91 76 73 69 63 58 53 48 47 48 47 46 45 46 44 43 43 45 47 49 53 56 64 70 72 73 74 74 74 75 77 79 77 76 75 76 79 80 82 85 85 78 75 74 72 72 69 68 70 69 62 67 79 85 86 85 85 84 85 86 89 90 92 92 90
197 198 197 203 207 204 206 209 215 212 203 198 196 186 175 160 148 141 131 126 108 88 79 73 67 60 56 52 50 49 47 48 48 48 46 45 46 47 49 51 53 57 64 70 71 70 72 74 73 75 78 79 78 77 76 76 78 79 79 81 81 77 73 71 71 70 67 66 62 61 65 74 82 85 86 87 86 85 86 88 89 90 90 88 86
198 205 201 202 207 206 206 206 214 214 208 203 203 196 185 173 158 153 148 149 130 107 91 81 74 63 58 56 53 51 49 52 52 51 48 47 48 49 51 52 53 56 63 68 68 67 69 74 77 79 80 79 79 79 79 79 78 78 77 78 81 79 76 73 71 67 64 64 63 68 71 75 82 85 87 88 88 87 88 88 88 88 87 85 84
191 204 203 204 206 207 206 205 211 213 213 207 207 203 193 182 168 165 165 170 157 140 119 97 84 69 62 59 56 52 51 55 55 52 50 48 49 51 53 53 53 56 61 65 69 68 65 71 78 79 79 78 78 79 79 79 78 78 76 77 78 76 75 73 71 67 68 71 75 79 76 77 83 87 90 91 90 89 88 89 89 89 88 88 88
185 197 201 207 207 207 208 205 208 212 215 211 210 206 199 191 179 175 178 185 178 173 158 118 95 81 67 63 59 55 55 59 58 55 51 50 50 52 54 54 54 55 59 62 68 70 66 66 71 73 74 76 77 79 79 77 78 77 75 75 74 73 72 73 77 77 76 77 78 77 76 83 88 91 94 92 91 91 91 91 92 93 93 93 93
183 192 197 207 207 208 210 207 207 211 215 213 212 208 203 198 190 185 187 193 191 191 184 151 110 96 77 66 64 59 59 63 62 57 53 52 51 52 54 56 56 56 58 60 62 67 68 66 67 70 73 77 78 78 78 76 76 75 74 73 73 74 75 78 82 81 78 79 77 74 77 86 92 94 95 95 94 94 94 95 96 97 97 96 95
182 189 195 203 205 207 210 210 208 211 215 214 212 209 206 203 198 192 194 196 196 200 198 182 139 122 97 71 73 67 64 67 65 61 56 54 52 52 56 58 59 58 59 59 59 63 67 68 69 70 73 77 78 78 76 75 73 73 75 75 79 81 82 83 85 86 83 80 81 83 87 91 94 96 96 96 97 98 99 99 100 99 98 96 95
178 187 193 196 201 204 207 211 211 212 215 215 213 211 208 206 203 196 198 197 198 203 205 205 178 166 153 88 85 77 69 72 69 67 62 56 54 54 57 61 62 61 61 61 61 63 65 67 71 73 74 77 79 79 75 74 74 76 80 83 87 89 90 88 87 92 90 86 91 96 96 97 97 98 99 99 100 102 102 102 100 99 98 96 95
177 185 191 193 199 204 205 210 212 214 215 216 215 213 211 209 207 202 203 198 200 204 208 215 207 204 205 167 108 93 72 77 77 74 68 60 56 57 60 64 66 65 65 65 65 65 67 69 72 74 76 80 81 82 80 80 81 84 86 89 92 93 94 92 91 92 90 88 94 99 99 101 101 102 102 103 103 103 102 102 100 99 97 96 94
181 187 193 197 205 207 205 210 213 216 216 218 217 215 214 212 210 207 206 203 204 206 211 219 220 219 218 226 164 119 86 83 86 82 75 68 57 57 63 68 70 69 69 68 68 68 70 72 74 76 77 82 84 85 86 86 87 89 91 92 93 93 93 94 93 90 90 92 95 98 100 102 103 103 103 103 104 103 103 102 101 99 98 96 94
188 191 197 203 209 211 209 212 213 216 216 217 216 214 213 211 211 209 208 207 208 208 213 221 223 223 221 227 214 161 132 104 98 94 85 77 63 57 65 72 74 73 73 72 71 71 72 74 77 80 80 83 86 87 88 90 91 92 93 93 94 93 93 95 93 90 93 96 98 99 101 102 103 103 104 104 105 105 104 102 101 100 98 96 93
199 193 199 207 211 214 214 215 214 215 216 216 215 213 211 208 209 209 210 209 211 213 216 223 224 222 222 226 226 199 164 153 122 107 97 91 77 58 64 76 78 77 77 76 76 74 75 77 80 82 83 85 87 89 90 92 94 94 95 95 95 95 96 96 94 95 97 98 100 101 102 103 103 104 105 106 106 106 105 103 101 100 97 94 91
212 198 201 208 213 218 218 218 217 216 216 216 215 212 210 208 209 210 211 211 214 218 222 225 227 226 223 226 226 218 192 177 155 127 113 106 97 71 57 77 84 82 81 81 80 79 79 81 83 86 87 89 89 91 92 93 95 96 97 99 100 101 102 97 96 100 101 101 102 103 104 104 104 105 106 107 107 106 105 103 101 99 96 93 90
232 215 205 207 213 221 221 219 217 217 216 216 215 213 212 210 210 212 215 216 219 224 227 229 231 230 226 227 225 220 212 199 181 151 132 124 117 102 51 73 89 89 87 86 86 85 85 86 87 90 92 92 93 93 94 95 95 97 98 99 102 107 106 101 101 103 103 105 105 105 107 107 107 107 107 107 106 105 103 102 100 98 95 92 89
241 231 209 207 215 220 220 219 217 216 216 215 214 213 213 212 212 215 220 220 225 229 231 233 233 234 231 228 227 222 219 215 203 175 151 140 133 131 117 64 91 95 95 94 94 94 93 92 92 94 95 95 96 97 97 98 98 100 101 101 105 110 107 105 106 106 107 107 107 108 108 108 109 108 108 108 107 105 103 101 100 97 95 91 88
237 233 221 214 218 220 220 220 219 218 216 215 215 214 213 212 211 214 221 223 228 232 233 236 235 236 235 233 233 228 224 224 218 199 174 155 146 149 169 209 103 102 103 104 103 104 103 101 100 99 100 100 100 99 99 101 102 104 105 105 107 109 105 107 110 111 111 111 111 111 110 110 110 109 109 108 107 105 103 102 100 97 94 89 84
232 233 227 221 220 219 221 222 222 222 219 217 215 215 213 210 211 213 219 223 228 233 235 237 237 238 239 239 238 233 229 229 228 217 196 174 159 160 176 202 185 120 113 115 115 115 113 110 109 108 107 106 105 104 105 105 106 107 107 109 111 109 105 107 111 113 115 115 114 112 111 110 110 110 110 109 108 106 104 102 100 96 91 85 78
222 228 230 226 223 221 222 221 223 224 222 223 220 217 215 212 213 214 219 223 228 233 236 239 241 243 244 243 242 237 233 232 234 230 213 191 174 170 178 194 211 170 133 130 129 126 124 119 116 115 113 110 110 110 112 111 111 111 110 114 116 115 113 112 113 114 116 117 116 115 114 113 112 112 112 114 112 110 109 105 100 95 87 78 69
215 224 229 230 224 218 219 223 225 225 222 222 222 221 218 216 215 217 220 222 226 230 235 239 243 246 247 247 248 244 238 238 240 238 228 208 189 180 183 190 203 206 169 152 150 141 133 129 126 122 118 116 116 117 119 120 120 121 119 120 121 122 125 119 117 118 120 120 118 117 117 117 118 119 122 123 120 118 115 109 102 89 75 61 44
214 221 224 226 219 208 214 225 224 224 225 223 223 222 220 218 216 218 220 223 226 228 232 237 242 247 251 252 253 251 244 242 243 243 238 226 207 192 189 191 197 209 202 181 172 162 149 142 139 132 128 128 129 129 130 130 132 133 134 135 132 135 140 128 124 127 129 129 128 125 121 122 124 128 134 134 137 137 132 124 107 33 4 352 347
216 220 222 223 220 213 218 220 217 222 225 223 223 220 219 216 215 218 221 225 227 229 232 236 242 246 250 252 252 250 245 242 241 242 241 235 224 207 197 196 196 203 212 206 195 182 169 161 157 150 145 148 151 152 152 151 152 153 154 157 153 159 161 145 139 139 141 143 143 142 139 145 153 162 162 176 209 234 255 280 298 302 309 313 316
219 223 225 224 222 222 226 224 219 220 216 217 219 216 216 213 215 219 223 229 229 230 232 233 238 241 245 246 248 250 248 243 240 240 239 238 234 223 209 202 200 200 209 215 211 201 186 179 177 171 168 168 170 172 173 172 174 176 180 183 186 189 179 168 167 162 166 170 171 181 191 215 237 250 268 283 284 286 287 290 294 297 300 302 304
226 229 231 227 223 221 225 225 218 215 213 213 213 216 221 218 216 221 227 231 228 228 231 232 232 235 238 237 240 244 245 243 241 239 234 234 235 230 221 211 208 204 206 215 217 215 203 191 189 189 188 184 180 181 184 186 185 189 196 198 208 210 194 194 201 198 202 207 215 229 241 252 261 269 275 279 281 282 285 286 287 290 293 293 297
225 228 233 229 224 222 221 220 214 213 218 217 213 216 223 224 221 221 223 224 226 224 224 230 230 230 227 220 230 235 233 238 241 241 235 231 231 231 227 219 215 211 209 214 217 218 215 205 199 200 201 198 193 190 191 197 199 203 209 211 220 226 223 225 231 234 235 240 245 250 256 263 269 274 277 279 280 281 282 283 283 284 286 287 289
230 227 233 234 229 222 217 216 212 212 218 220 221 221 223 227 225 221 216 213 217 219 216 222 231 237 228 206 224 236 229 231 233 239 240 232 230 231 230 225 220 219 216 217 218 218 218 214 209 207 209 211 209 205 201 205 212 217 223 229 236 241 244 247 248 251 254 256 258 260 264 268 273 276 278 279 280 281 281 282 282 282 282 284 284
236 229 231 242 237 225 218 215 211 216 222 220 225 226 228 232 229 227 223 216 216 218 219 227 239 250 250 213 216 237 234 232 229 233 238 232 230 231 232 229 222 221 223 223 222 220 219 218 214 213 216 219 217 218 217 215 221 227 233 240 246 251 256 260 263 265 267 267 268 270 273 276 278 280 280 281 281 281 281 281 280 280 281 282 282
232 228 233 242 233 219 218 218 210 217 222 216 221 227 230 233 231 232 226 215 218 221 217 225 237 249 259 253 233 244 241 235 228 224 229 229 227 226 228 230 222 222 226 226 227 223 221 222 219 218 222 224 222 225 225 223 228 232 235 242 249 256 261 266 269 271 270 272 275 276 279 281 282 282 282 282 282 281 281 280 278 278 278 279 278
225 223 232 237 227 209 211 215 211 219 224 219 224 226 227 231 233 238 229 207 220 228 220 222 232 239 254 263 252 248 241 239 237 225 221 221 222 221 221 224 222 227 226 223 229 228 224 226 223 222 226 228 227 229 229 229 233 236 238 241 247 254 260 264 269 273 273 273 276 278 279 281 282 282 281 280 280 280 280 279 278 276 276 275 272
225 225 231 232 229 216 210 216 219 230 235 228 227 225 231 243 244 248 248 245 246 254 272 273 272 274 271 268 264 262 258 257 257 248 232 217 216 219 218 218 223 234 228 221 229 232 229 230 228 227 230 231 231 232 234 234 236 239 242 243 247 252 258 265 269 274 276 275 276 278 281 283 283 282 281 281 280 281 281 279 278 276 276 273 267
223 225 235 236 244 251 249 253 255 259 260 263 273 273 279 285 287 273 257 267 280 301 303 300 305 296 289 284 281 282 284 274 266 268 256 228 218 217 219 225 230 233 227 223 228 231 232 234 234 232 233 234 234 235 236 238 240 242 245 247 249 253 259 265 269 273 277 281 281 280 283 284 283 282 282 283 284 284 282 279 278 277 276 270 264
224 228 249 257 267 280 284 286 299 304 299 315 325 311 304 306 308 305 299 294 302 312 300 301 304 298 298 293 290 290 288 279 266 268 263 246 233 227 231 235 233 230 228 228 225 224 229 234 235 234 234 235 236 236 237 239 242 244 246 249 251 255 261 265 269 273 278 283 284 282 282 281 280 281 283 284 285 284 280 276 276 277 276 268 260
232 236 250 257 269 282 286 291 307 312 310 320 323 315 315 318 316 317 317 312 307 298 291 296 300 304 303 296 296 294 287 282 275 272 272 266 254 243 239 234 232 232 230 230 225 221 226 231 233 233 233 235 238 238 237 239 242 245 246 249 252 257 261 265 270 275 278 283 285 283 281 280 282 283 282 282 284 282 277 274 274 275 275 267 259
244 247 256 272 292 302 305 305 298 303 306 306 310 316 321 324 323 321 310 295 287 282 278 283 291 299 302 298 296 292 289 290 290 288 288 286 280 268 251 235 231 238 237 234 229 223 225 228 230 233 233 236 240 239 239 241 243 246 246 247 252 257 261 265 271 274 276 280 283 283 282 282 283 284 281 280 282 282 276 272 272 272 271 265 260
258 264 272 289 306 311 318 323 313 306 303 302 311 322 327 327 321 310 297 280 271 270 271 278 285 291 296 295 291 289 290 291 291 288 289 291 290 285 271 252 236 238 242 240 235 228 228 230 228 232 234 235 239 240 240 242 244 246 246 247 251 256 261 265 270 272 274 277 278 280 282 284 284 282 279 280 280 279 274 269 269 269 266 263 259
257 269 281 299 319 324 330 332 326 316 316 323 326 326 324 321 314 305 292 279 271 266 267 273 276 278 282 285 284 284 286 288 288 286 287 287 285 286 284 272 252 240 244 242 237 232 231 233 229 230 235 235 236 238 239 241 244 245 246 247 251 255 260 264 267 270 270 269 272 276 280 283 283 281 281 281 278 275 270 265 264 263 261 258 255
249 278 314 334 338 335 336 328 323 325 331 337 333 324 316 311 308 303 291 280 273 265 263 267 271 271 271 275 276 277 280 282 283 284 285 285 284 287 287 277 261 247 248 246 242 238 233 233 230 230 234 235 235 236 238 240 242 244 246 248 250 253 256 261 264 265 262 261 266 271 274 277 278 280 282 279 277 273 266 260 257 256 254 251 250
251 299 335 345 343 337 338 333 326 328 336 335 324 309 299 300 299 297 293 284 276 268 263 263 270 272 269 268 268 270 274 276 278 280 281 282 284 286 286 280 268 256 252 248 246 244 236 231 234 233 233 234 233 234 236 239 241 243 245 247 248 250 253 258 259 258 255 257 265 267 268 271 273 276 276 275 276 271 262 256 252 251 250 248 248
255 262 290 318 333 332 328 324 321 324 332 331 320 306 291 289 290 291 289 284 278 273 267 261 262 267 266 266 267 269 272 274 275 277 281 283 285 285 284 282 275 265 259 253 247 247 243 237 240 241 237 235 233 234 235 236 239 241 243 245 246 248 252 255 253 249 250 256 262 262 265 269 271 272 272 272 272 266 258 253 250 249 249 247 246
246 249 261 284 289 295 295 300 312 318 326 331 323 315 301 289 286 283 280 276 274 269 264 260 259 260 262 267 271 272 272 272 273 276 282 285 286 285 281 279 276 269 267 264 254 250 250 246 246 245 240 236 233 232 233 233 235 237 240 243 244 246 250 249 244 243 250 257 259 257 261 266 268 269 268 265 262 260 258 256 253 250 247 245 242
251 260 266 277 270 274 283 295 309 314 320 325 318 310 300 288 280 275 270 266 262 259 255 254 256 258 259 263 266 269 272 273 275 279 282 281 282 282 278 277 275 267 267 269 262 257 256 250 248 247 239 234 232 230 229 231 232 235 237 240 243 244 243 242 241 244 251 254 252 252 258 263 265 267 265 257 250 250 253 253 254 252 243 237 235
257 266 264 265 268 273 281 291 301 309 313 317 315 304 291 283 276 269 264 258 253 250 248 247 251 256 258 261 265 271 275 277 280 283 281 279 278 278 275 273 271 265 262 265 266 265 262 253 245 245 241 235 231 227 227 227 229 233 236 239 240 238 236 238 241 245 247 247 246 246 253 258 261 263 257 249 242 239 242 237 234 241 240 233 228
246 248 250 255 264 270 276 284 293 304 308 311 313 304 294 290 281 269 263 259 255 252 246 243 247 254 260 265 272 277 279 280 285 288 285 282 281 279 278 274 268 262 259 261 264 263 262 258 247 240 242 239 230 224 225 227 228 231 235 237 238 235 234 240 245 245 243 243 243 242 248 252 254 255 249 244 242 240 246 240 222 223 233 232 224
241 245 251 256 264 271 275 283 291 298 303 307 307 303 300 299 290 276 268 266 267 267 265 262 263 270 275 280 284 286 286 288 291 295 294 291 288 284 282 278 270 262 260 260 259 259 261 260 251 240 239 239 232 226 225 226 227 229 232 233 234 234 235 242 248 247 243 243 243 246 249 248 249 247 240 239 237 234 241 244 229 216 224 229 225
243 250 256 260 265 271 277 282 288 294 299 300 298 299 301 300 292 280 271 269 271 275 278 280 284 288 290 291 292 293 296 298 298 299 299 297 294 290 286 282 276 268 262 259 256 259 261 257 251 243 239 235 231 228 226 225 225 226 228 229 229 232 237 243 245 244 243 242 242 246 246 246 247 240 232 231 229 229 233 235 229 217 218 225 228
249 254 258 263 266 270 277 282 286 291 294 294 292 296 298 297 292 281 273 271 272 275 280 285 290 293 294 296 298 301 308 310 307 305 304 300 297 294 290 285 280 273 266 258 255 258 258 252 247 241 236 234 230 227 226 225 224 223 223 226 228 232 237 240 240 239 240 240 238 239 241 244 246 238 229 225 221 224 228 228 222 215 216 219 222
252 258 263 265 268 273 279 282 285 288 289 290 290 291 295 296 293 284 276 273 274 278 283 289 294 294 295 298 304 310 315 315 312 309 305 302 297 294 290 286 281 276 269 259 254 257 256 248 245 239 230 228 229 228 227 227 226 223 221 224 228 233 236 236 236 236 236 236 233 233 238 242 242 236 226 218 217 220 224 226 215 207 216 213 210
254 260 265 267 272 276 280 281 283 285 284 285 287 287 290 293 292 287 280 276 275 279 284 291 297 297 296 298 303 309 312 313 312 310 305 302 299 294 291 286 281 275 268 258 253 257 255 244 242 241 233 228 232 234 232 228 228 225 223 225 228 232 233 232 231 231 232 233 231 230 235 238 238 232 222 214 215 217 215 218 210 203 216 215 205
256 261 266 270 274 275 277 280 281 282 282 282 283 284 287 291 291 289 285 280 276 277 282 291 299 302 301 300 300 303 306 309 311 311 308 305 301 297 294 289 282 275 266 256 251 253 250 240 237 239 237 234 237 238 234 229 228 227 227 227 226 228 230 229 227 228 231 232 232 233 232 234 234 229 222 216 215 216 211 210 208 205 214 219 207
260 263 266 267 270 273 275 278 279 279 279 280 281 283 285 287 289 289 289 289 286 284 286 293 300 303 303 301 300 299 301 305 309 311 311 308 303 300 297 291 285 278 267 257 250 247 244 237 234 236 237 235 236 237 235 230 227 225 228 231 227 224 225 226 225 230 236 235 233 235 233 232 233 229 226 220 216 217 212 208 210 206 208 217 213
265 264 264 265 267 271 275 277 279 279 279 280 280 280 281 281 283 286 290 293 293 292 292 295 298 301 301 301 299 297 297 300 305 308 309 308 303 300 297 293 291 279 261 255 251 245 241 236 234 237 236 234 234 234 236 233 227 225 229 232 230 224 223 225 224 228 235 236 235 237 235 232 233 229 226 224 219 216 213 211 212 209 204 212 218
265 265 266 268 269 271 274 278 280 280 280 281 281 281 281 281 282 285 287 289 290 291 292 293 296 299 301 300 298 295 295 297 301 304 306 305 301 299 296 295 298 280 254 253 253 245 240 235 235 239 239 237 235 233 235 232 228 228 229 231 231 228 225 225 224 224 228 233 236 239 236 229 229 227 222 223 223 217 215 214 212 210 208 211 215
Height
3163 3164 3164 3165 3165 3166 3166 3166 3167 3168 3168 3169 3169 3169 3169 3169 3170 3170 3171 3171 3171 3171 3171 3172 3172 3172 3172 3172 3172 3171 3171 3171 3170 3170 3170 3169 3169 3168 3166 3165 3164 3163 3163 3163 3163 3163 3162 3162 3162 3162 3162 3162 3162 3162 3162 3162 3162 3162 3162 3162 3161 3161 3161 3161 3160 3160 3160 3160 3159 3159 3159 3158 3158 3158 3158 3158 3158 3157 3157 3157 3157 3157 3158 3157 3157
3163 3164 3164 3164 3165 3165 3165 3166 3167 3168 3168 3169 3169 3169 3169 3170 3170 3171 3171 3171 3171 3172 3172 3172 3172 3172 3173 3173 3172 3172 3172 3172 3172 3171 3171 3170 3170 3168 3167 3166 3165 3165 3165 3165 3164 3164 3164 3163 3163 3163 3163 3163 3163 3163 3163 3163 3163 3163 3163 3163 3162 3162 3162 3162 3161 3161 3161 3160 3160 3160 3160 3160 3159 3159 3159 3159 3159 3159 3159 3159 3159 3159 3159 3159 3159
3163 3163 3163 3164 3164 3164 3165 3165 3166 3167 3168 3168 3169 3169 3170 3170 3171 3171 3171 3171 3172 3172 3173 3173 3173 3173 3173 3173 3173 3173 3173 3173 3173 3172 3172 3171 3170 3169 3168 3168 3167 3166 3166 3166 3166 3165 3165 3164 3164 3164 3164 3164 3164 3164 3164 3164 3164 3164 3164 3163 3163 3163 3163 3163 3162 3162 3162 3161 3161 3161 3160 3161 3161 3160 3160 3160 3160 3160 3160 3160 3160 3160 3161 3161 3161
3163 3163 3163 3163 3163 3163 3164 3165 3166 3167 3167 3168 3169 3169 3170 3170 3171 3171 3172 3172 3172 3172 3173 3173 3173 3173 3173 3173 3173 3173 3174 3174 3173 3173 3172 3172 3171 3170 3169 3169 3168 3168 3167 3167 3167 3167 3166 3166 3166 3165 3165 3165 3165 3165 3165 3165 3165 3165 3164 3164 3164 3164 3164 3164 3164 3163 3163 3162 3162 3162 3161 3162 3162 3162 3162 3161 3161 3161 3161 3161 3162 3162 3162 3162 3162
3162 3162 3162 3162 3162 3163 3163 3164 3165 3166 3167 3168 3168 3169 3170 3170 3171 3171 3172 3172 3172 3173 3173 3173 3173 3173 3174 3174 3174 3174 3174 3174 3174 3174 3173 3172 3171 3171 3171 3171 3170 3169 3169 3169 3168 3168 3167 3167 3167 3166 3166 3166 3166 3166 3166 3166 3166 3165 3165 3165 3165 3165 3165 3164 3164 3164 3164 3164 3163 3163 3163 3163 3163 3163 3163 3162 3162 3162 3162 3163 3163 3163 3163 3163 3164
3161 3161 3161 3162 3162 3162 3163 3164 3165 3165 3166 3167 3168 3169 3169 3170 3171 3171 3171 3172 3172 3173 3173 3173 3173 3174 3174 3174 3174 3174 3175 3175 3175 3174 3173 3173 3172 3172 3172 3172 3171 3171 3170 3170 3169 3169 3169 3168 3168 3167 3167 3167 3167 3167 3167 3167 3166 3166 3166 3166 3165 3165 3165 3165 3165 3165 3165 3165 3164 3164 3164 3164 3164 3164 3164 3164 3164 3164 3164 3164 3165 3165 3165 3165 3165
3160 3160 3160 3161 3161 3162 3162 3163 3164 3164 3165 3166 3167 3168 3169 3169 3170 3170 3171 3171 3172 3172 3173 3173 3173 3174 3174 3174 3174 3175 3175 3175 3175 3175 3174 3174 3174 3173 3173 3173 3172 3172 3172 3171 3171 3171 3170 3169 3169 3169 3169 3168 3168 3168 3168 3167 3167 3167 3167 3167 3166 3166 3166 3166 3166 3166 3166 3165 3165 3166 3166 3166 3165 3165 3165 3165 3165 3165 3165 3166 3167 3167 3167 3167 3167
3160 3160 3160 3160 3161 3161 3162 3162 3163 3163 3164 3165 3166 3167 3168 3169 3169 3170 3170 3171 3172 3172 3172 3173 3173 3174 3174 3174 3175 3175 3176 3176 3175 3175 3175 3175 3174 3174 3174 3174 3174 3173 3173 3173 3172 3172 3171 3171 3170 3170 3170 3169 3169 3169 3168 3168 3168 3168 3168 3168 3167 3167 3167 3167 3167 3167 3167 3167 3167 3167 3167 3167 3167 3167 3167 3167 3167 3167 3167 3168 3168 3169 3169 3169 3169
3159 3159 3159 3160 3160 3160 3161 3162 3162 3163 3164 3165 3166 3167 3167 3168 3169 3170 3170 3171 3171 3172 3172 3173 3173 3174 3174 3174 3175 3175 3176 3176 3176 3176 3175 3175 3175 3175 3175 3175 3174 3174 3174 3174 3174 3173 3173 3172 3172 3171 3171 3171 3170 3170 3169 3169 3169 3169 3169 3169 3169 3169 3168 3168 3169 3168 3168 3169 3169 3169 3169 3168 3169 3169 3168 3169 3169 3169 3170 3170 3170 3171 3171 3171 3171
3158 3158 3158 3159 3159 3160 3161 3161 3161 3162 3163 3164 3165 3166 3167 3168 3169 3169 3170 3170 3171 3171 3172 3172 3173 3174 3174 3174 3175 3175 3175 3176 3176 3176 3176 3176 3176 3176 3176 3176 3175 3175 3175 3175 3175 3175 3174 3174 3173 3173 3173 3172 3172 3171 3171 3171 3170 3170 3170 3170 3170 3170 3170 3170 3170 3169 3170 3171 3171 3171 3171 3171 3171 3171 3171 3171 3171 3171 3172 3172 3172 3173 3173 3173 3173
3157 3158 3158 3158 3159 3159 3160 3160 3161 3162 3163 3164 3164 3165 3166 3167 3168 3168 3169 3170 3170 3171 3171 3172 3173 3173 3173 3174 3174 3175 3175 3176 3176 3176 3176 3176 3176 3176 3177 3177 3176 3176 3176 3176 3176 3176 3175 3175 3175 3174 3174 3174 3173 3173 3173 3173 3173 3172 3172 3172 3172 3172 3172 3172 3171 3172 3173 3173 3173 3173 3173 3173 3173 3173 3173 3173 3173 3174 3174 3174 3174 3174 3174 3175 3175
3156 3157 3157 3158 3158 3159 3159 3159 3160 3161 3162 3163 3164 3165 3166 3166 3167 3168 3169 3169 3170 3171 3171 3171 3172 3173 3173 3173 3174 3174 3175 3175 3176 3176 3176 3176 3177 3177 3177 3177 3177 3176 3176 3176 3177 3177 3177 3176 3176 3176 3176 3176 3175 3175 3175 3175 3175 3175 3174 3174 3174 3174 3174 3174 3173 3174 3176 3175 3176 3175 3175 3175 3175 3175 3175 3175 3175 3176 3176 3176 3176 3176 3176 3176 3176
3156 3156 3157 3157 3158 3158 3158 3158 3159 3160 3161 3162 3163 3164 3165 3166 3167 3167 3168 3169 3170 3170 3170 3171 3171 3172 3172 3173 3173 3174 3175 3175 3176 3176 3177 3177 3177 3177 3177 3178 3178 3177 3177 3177 3177 3177 3177 3178 3178 3178 3178 3178 3177 3177 3176 3177 3177 3176 3176 3176 3176 3176 3176 3175 3175 3177 3177 3177 3178 3177 3177 3177 3177 3177 3177 3177 3177 3177 3177 3178 3178 3178 3178 3178 3178
3156 3156 3157 3157 3157 3157 3157 3158 3158 3159 3160 3161 3162 3163 3164 3165 3166 3167 3168 3169 3169 3170 3170 3170 3171 3172 3172 3172 3173 3174 3174 3175 3175 3176 3177 3177 3177 3177 3177 3178 3178 3178 3177 3177 3178 3178 3178 3179 3179 3179 3179 3179 3179 3178 3178 3178 3178 3178 3178 3178 3178 3178 3177 3176 3178 3178 3179 3179 3179 3179 3179 3179 3179 3179 3179 3179 3179 3179 3179 3179 3179 3179 3179 3179 3179
3156 3156 3157 3157 3157 3157 3157 3157 3157 3158 3159 3161 3162 3163 3164 3165 3166 3167 3168 3169 3169 3169 3170 3170 3170 3171 3171 3172 3173 3173 3174 3174 3175 3176 3176 3177 3177 3178 3177 3178 3178 3178 3178 3178 3178 3178 3179 3179 3179 3180 3180 3180 3180 3180 3180 3180 3180 3180 3180 3180 3180 3180 3179 3178 3179 3180 3180 3180 3181 3181 3181 3180 3180 3180 3181 3181 3181 3181 3181 3181 3181 3181 3180 3180 3180
3157 3156 3157 3157 3156 3156 3156 3157 3157 3158 3159 3161 3162 3163 3164 3165 3166 3167 3167 3168 3169 3169 3169 3170 3170 3170 3171 3171 3172 3173 3173 3174 3174 3175 3176 3177 3178 3178 3178 3178 3178 3178 3178 3179 3179 3179 3179 3180 3180 3180 3181 3181 3181 3181 3181 3181 3182 3182 3182 3182 3182 3182 3181 3180 3181 3182 3182 3182 3182 3182 3182 3182 3182 3182 3182 3182 3182 3182 3182 3182 3182 3182 3181 3181 3181
3156 3156 3156 3156 3156 3156 3156 3157 3158 3158 3159 3161 3162 3163 3164 3165 3165 3166 3167 3167 3168 3169 3169 3169 3170 3170 3170 3171 3172 3172 3173 3173 3174 3174 3175 3176 3177 3178 3178 3178 3178 3178 3179 3179 3179 3180 3180 3180 3180 3181 3181 3182 3182 3182 3183 3183 3183 3183 3183 3183 3183 3183 3183 3182 3183 3183 3183 3183 3183 3184 3184 3184 3183 3183 3183 3183 3184 3183 3183 3183 3183 3182 3182 3182 3182
3157 3157 3156 3156 3155 3156 3156 3157 3157 3158 3159 3161 3162 3163 3163 3164 3165 3165 3166 3166 3167 3168 3169 3169 3169 3169 3170 3171 3171 3172 3172 3173 3173 3174 3175 3176 3177 3178 3178 3178 3178 3178 3179 3179 3180 3180 3180 3181 3181 3181 3182 3182 3183 3183 3183 3184 3184 3184 3184 3184 3184 3184 3184 3183 3184 3184 3184 3184 3185 3185 3185 3185 3185 3185 3184 3184 3184 3184 3184 3184 3184 3183 3183 3183 3182
3157 3157 3156 3155 3155 3155 3156 3156 3157 3158 3159 3160 3161 3162 3162 3163 3164 3164 3165 3165 3166 3167 3168 3168 3168 3169 3169 3170 3171 3171 3172 3172 3172 3173 3174 3175 3176 3177 3178 3178 3178 3178 3178 3179 3180 3180 3180 3181 3181 3181 3182 3182 3183 3183 3184 3184 3184 3185 3185 3185 3184 3184 3184 3184 3184 3184 3185 3185 3185 3185 3185 3186 3186 3185 3185 3185 3185 3185 3185 3185 3184 3184 3184 3183 3183
3157 3156 3156 3155 3154 3155 3157 3156 3157 3158 3159 3160 3161 3161 3161 3162 3163 3163 3164 3164 3165 3166 3166 3167 3167 3168 3168 3169 3170 3170 3171 3171 3172 3172 3173 3174 3176 3177 3177 3178 3178 3178 3178 3179 3180 3180 3180 3181 3181 3181 3182 3182 3183 3184 3184 3185 3185 3185 3185 3185 3185 3185 3185 3185 3185 3185 3185 3185 3185 3185 3186 3186 3186 3186 3186 3185 3185 3185 3185 3185 3185 3184 3184 3183 3183
3157 3156 3156 3155 3155 3157 3157 3157 3158 3160 3160 3160 3160 3160 3160 3161 3161 3162 3163 3163 3164 3165 3165 3166 3166 3167 3167 3168 3168 3169 3170 3170 3171 3171 3172 3173 3175 3176 3177 3177 3178 3178 3178 3179 3179 3180 3180 3180 3181 3181 3182 3182 3183 3184 3184 3185 3185 3185 3186 3186 3186 3186 3185 3185 3185 3185 3185 3185 3186 3186 3186 3186 3186 3186 3186 3186 3185 3185 3185 3185 3184 3184 3184 3183 3183
3157 3156 3156 3155 3157 3159 3157 3156 3159 3160 3160 3159 3159 3159 3159 3160 3160 3161 3162 3163 3164 3164 3164 3164 3165 3165 3165 3166 3167 3168 3168 3169 3169 3170 3171 3172 3173 3175 3176 3177 3178 3178 3179 3179 3179 3180 3180 3180 3181 3181 3182 3182 3183 3184 3184 3185 3185 3185 3186 3186 3186 3186 3185 3185 3185 3185 3186 3186 3186 3186 3186 3186 3186 3186 3186 3185 3185 3185 3185 3184 3184 3184 3184 3183 3183
3156 3156 3155 3156 3158 3159 3156 3156 3158 3159 3158 3158 3159 3159 3159 3159 3160 3160 3161 3163 3163 3163 3163 3163 3163 3163 3164 3165 3166 3167 3167 3168 3168 3169 3170 3171 3172 3173 3175 3176 3177 3178 3178 3179 3179 3179 3180 3180 3181 3181 3182 3182 3183 3183 3184 3184 3185 3185 3186 3186 3186 3186 3185 3185 3185 3185 3185 3186 3186 3186 3186 3186 3186 3186 3185 3185 3185 3184 3184 3184 3184 3183 3183 3183 3183
3156 3155 3155 3156 3158 3158 3157 3156 3157 3158 3157 3158 3159 3160 3160 3160 3160 3160 3161 3163 3163 3163 3162 3162 3162 3161 3162 3164 3166 3166 3167 3167 3167 3167 3168 3169 3170 3171 3173 3174 3176 3177 3178 3178 3178 3179 3179 3180 3180 3181 3181 3181 3182 3183 3183 3184 3184 3185 3185 3186 3186 3186 3185 3185 3185 3185 3185 3185 3185 3185 3185 3185 3185 3185 3185 3184 3184 3184 3183 3183 3183 3183 3182 3182 3182
3155 3155 3155 3154 3155 3156 3156 3156 3157 3158 3157 3158 3159 3160 3160 3161 3161 3161 3162 3164 3163 3162 3162 3161 3161 3160 3161 3165 3166 3165 3166 3166 3166 3166 3166 3167 3168 3169 3170 3172 3174 3175 3176 3177 3178 3178 3178 3179 3180 3180 3180 3180 3181 3182 3182 3183 3184 3184 3185 3185 3185 3185 3185 3185 3185 3185 3185 3185 3185 3185 3184 3184 3184 3184 3183 3183 3183 3182 3182 3182 3182 3181 3181 3181 3181
3155 3155 3154 3154 3154 3155 3155 3156 3157 3158 3157 3158 3158 3159 3161 3162 3162 3163 3164 3166 3164 3162 3162 3162 3161 3160 3161 3164 3165 3164 3164 3165 3165 3165 3165 3165 3166 3167 3168 3169 3172 3173 3175 3176 3177 3177 3177 3178 3179 3179 3179 3180 3180 3181 3181 3182 3183 3183 3183 3184 3184 3184 3184 3184 3184 3184 3184 3184 3184 3184 3183 3183 3183 3182 3182 3181 3181 3181 3181 3180 3180 3180 3180 3180 3180
3155 3155 3154 3153 3154 3155 3156 3157 3158 3158 3158 3159 3160 3160 3161 3162 3164 3165 3166 3167 3165 3163 3163 3163 3162 3161 3161 3162 3163 3163 3163 3164 3164 3163 3164 3164 3164 3165 3166 3167 3169 3171 3173 3174 3175 3175 3176 3177 3178 3178 3178 3178 3179 3180 3180 3181 3181 3182 3182 3182 3183 3183 3183 3183 3182 3182 3183 3183 3183 3182 3182 3182 3181 3181 3180 3180 3179 3179 3179 3179 3178 3178 3178 3178 3178
3155 3155 3152 3151 3153 3155 3157 3158 3159 3159 3159 3161 3162 3161 3161 3163 3165 3166 3166 3167 3166 3163 3163 3163 3161 3161 3160 3160 3161 3161 3162 3164 3163 3162 3162 3163 3164 3164 3164 3166 3167 3169 3171 3172 3173 3173 3175 3175 3176 3177 3177 3177 3178 3179 3179 3180 3180 3180 3181 3181 3182 3182 3182 3182 3181 3181 3181 3182 3182 3181 3180 3180 3179 3179 3178 3178 3177 3177 3177 3176 3176 3176 3176 3176 3176
3154 3154 3152 3151 3154 3156 3158 3159 3160 3160 3161 3162 3163 3163 3163 3164 3165 3166 3166 3166 3166 3163 3162 3160 3159 3159 3158 3158 3159 3160 3161 3163 3162 3162 3162 3162 3163 3163 3163 3165 3166 3167 3168 3170 3171 3172 3173 3174 3174 3175 3175 3176 3177 3178 3178 3179 3179 3179 3179 3180 3180 3181 3181 3181 3181 3180 3179 3180 3180 3179 3179 3178 3178 3177 3176 3176 3175 3175 3175 3174 3174 3174 3174 3173 3174
3153 3153 3152 3153 3156 3158 3159 3160 3160 3162 3163 3164 3165 3164 3164 3164 3164 3166 3167 3166 3164 3163 3161 3159 3158 3158 3157 3157 3158 3159 3160 3161 3161 3161 3162 3162 3162 3161 3162 3164 3165 3165 3166 3167 3169 3170 3171 3171 3173 3173 3174 3174 3175 3176 3177 3177 3177 3177 3178 3179 3179 3180 3180 3180 3180 3179 3178 3178 3178 3178 3177 3176 3176 3175 3174 3174 3173 3173 3173 3172 3172 3172 3172 3172 3172
3154 3154 3154 3156 3158 3159 3160 3161 3162 3163 3164 3165 3166 3165 3164 3164 3164 3164 3165 3164 3163 3161 3160 3159 3159 3158 3158 3158 3158 3158 3158 3160 3161 3161 3162 3163 3162 3160 3161 3162 3162 3163 3164 3165 3167 3168 3169 3170 3170 3171 3172 3172 3173 3174 3175 3175 3175 3176 3176 3177 3177 3178 3178 3179 3178 3178 3177 3176 3176 3176 3175 3174 3174 3173 3173 3172 3172 3171 3171 3171 3171 3170 3170 3170 3170
3155 3156 3156 3156 3158 3160 3160 3161 3162 3162 3162 3164 3165 3165 3165 3164 3164 3163 3163 3162 3161 3160 3159 3158 3158 3158 3158 3158 3158 3158 3158 3159 3160 3161 3162 3164 3163 3160 3159 3159 3160 3161 3162 3163 3165 3166 3167 3168 3168 3169 3170 3170 3171 3172 3173 3173 3174 3174 3174 3175 3176 3176 3176 3177 3176 3176 3175 3175 3174 3174 3173 3173 3172 3171 3171 3170 3170 3170 3169 3169 3169 3169 3169 3169 3169
3156 3157 3157 3157 3160 3161 3161 3161 3161 3161 3161 3162 3163 3163 3164 3163 3163 3163 3162 3161 3160 3159 3158 3158 3158 3158 3158 3158 3158 3158 3158 3158 3158 3159 3160 3162 3162 3161 3159 3157 3158 3159 3160 3162 3163 3165 3165 3166 3166 3167 3168 3168 3169 3170 3171 3172 3172 3172 3173 3173 3174 3174 3174 3174 3174 3174 3174 3173 3172 3172 3172 3171 3171 3170 3169 3169 3168 3168 3168 3168 3168 3168 3168 3168 3168
3157 3158 3158 3159 3161 3161 3161 3161 3161 3161 3161 3162 3162 3162 3162 3162 3161 3161 3161 3160 3159 3158 3158 3158 3158 3158 3158 3158 3158 3157 3158 3158 3158 3159 3160 3160 3160 3161 3161 3159 3157 3157 3159 3160 3162 3163 3164 3164 3164 3165 3165 3166 3167 3168 3169 3170 3170 3170 3171 3171 3172 3172 3172 3172 3172 3172 3172 3171 3171 3170 3170 3169 3169 3168 3168 3167 3167 3167 3167 3167 3167 3167 3167 3167 3167
3157 3158 3159 3160 3160 3161 3161 3161 3162 3162 3161 3162 3162 3162 3161 3161 3160 3160 3159 3159 3158 3158 3158 3158 3157 3157 3157 3157 3157 3157 3158 3158 3158 3159 3160 3160 3159 3160 3161 3160 3157 3156 3157 3159 3161 3162 3162 3162 3163 3163 3163 3164 3165 3166 3167 3167 3168 3168 3169 3170 3170 3170 3171 3170 3170 3170 3170 3169 3169 3169 3168 3168 3167 3166 3166 3166 3166 3166 3166 3166 3166 3166 3166 3166 3166
3158 3158 3159 3160 3160 3160 3161 3161 3161 3161 3161 3161 3161 3161 3161 3160 3160 3159 3158 3158 3158 3158 3158 3158 3157 3157 3157 3157 3156 3156 3157 3158 3157 3157 3158 3158 3158 3159 3160 3160 3158 3155 3155 3157 3159 3161 3161 3161 3161 3161 3162 3162 3163 3164 3164 3165 3166 3167 3167 3168 3168 3169 3169 3169 3168 3168 3168 3168 3167 3167 3167 3166 3166 3165 3165 3165 3165 3165 3165 3165 3165 3165 3165 3165 3166
3158 3158 3159 3159 3160 3160 3160 3160 3160 3160 3160 3159 3159 3159 3159 3159 3159 3159 3158 3158 3158 3157 3157 3157 3157 3157 3156 3155 3154 3154 3155 3156 3156 3156 3157 3157 3157 3158 3158 3159 3159 3156 3154 3156 3158 3159 3159 3159 3159 3159 3160 3160 3161 3162 3162 3163 3164 3165 3166 3166 3166 3167 3167 3167 3167 3166 3166 3166 3166 3165 3165 3165 3165 3165 3164 3164 3164 3164 3164 3164 3164 3164 3164 3164 3165
3157 3157 3158 3159 3160 3159 3159 3158 3158 3159 3158 3158 3158 3158 3158 3158 3158 3158 3158 3157 3157 3157 3156 3156 3156 3156 3155 3154 3153 3153 3154 3155 3155 3155 3155 3155 3155 3156 3156 3157 3158 3157 3155 3156 3157 3157 3156 3157 3157 3158 3158 3159 3159 3160 3161 3162 3162 3163 3164 3164 3164 3165 3165 3165 3165 3165 3165 3164 3164 3164 3164 3163 3164 3164 3164 3163 3163 3163 3163 3163 3163 3163 3163 3164 3164
3156 3157 3158 3159 3160 3159 3158 3158 3157 3158 3158 3157 3157 3157 3157 3157 3157 3157 3156 3156 3156 3155 3155 3155 3155 3154 3153 3152 3151 3151 3151 3152 3153 3154 3154 3154 3154 3154 3154 3154 3155 3156 3156 3156 3156 3155 3154 3155 3155 3156 3156 3157 3157 3158 3159 3160 3160 3161 3161 3162 3162 3163 3163 3163 3163 3163 3163 3163 3163 3163 3162 3162 3162 3163 3163 3162 3162 3162 3162 3162 3162 3162 3162 3163 3163
3156 3157 3158 3159 3159 3158 3158 3157 3157 3157 3157 3157 3157 3156 3156 3155 3155 3154 3154 3154 3153 3152 3152 3153 3152 3151 3151 3150 3149 3148 3148 3148 3150 3152 3153 3153 3153 3152 3152 3152 3152 3153 3153 3154 3154 3153 3151 3151 3153 3153 3153 3153 3154 3155 3156 3158 3158 3159 3159 3160 3161 3161 3161 3161 3161 3161 3161 3161 3162 3162 3161 3161 3161 3162 3162 3161 3161 3162 3161 3161 3161 3161 3161 3162 3162
3156 3157 3158 3158 3158 3158 3157 3157 3157 3157 3156 3156 3156 3155 3154 3154 3153 3152 3152 3151 3150 3149 3148 3149 3149 3148 3147 3146 3146 3145 3145 3145 3147 3150 3150 3150 3150 3149 3150 3150 3150 3150 3150 3150 3151 3150 3149 3149 3150 3151 3150 3150 3151 3153 3154 3156 3156 3156 3157 3158 3159 3159 3159 3159 3160 3160 3160 3160 3161 3161 3160 3160 3160 3161 3161 3161 3161 3161 3160 3161 3161 3160 3160 3161 3162
3156 3156 3157 3157 3157 3157 3157 3157 3156 3156 3156 3156 3155 3154 3153 3153 3152 3151 3150 3149 3148 3146 3144 3145 3145 3144 3144 3144 3144 3144 3144 3143 3145 3148 3148 3147 3147 3146 3146 3147 3147 3147 3147 3147 3147 3147 3147 3148 3148 3148 3148 3149 3150 3151 3152 3153 3154 3155 3156 3157 3157 3157 3157 3158 3158 3159 3159 3159 3159 3160 3159 3159 3160 3160 3160 3160 3160 3160 3160 3160 3160 3160 3160 3161 3161
3155 3155 3156 3157 3157 3156 3156 3156 3156 3156 3155 3155 3154 3153 3153 3152 3151 3150 3149 3148 3147 3145 3144 3144 3143 3143 3144 3145 3145 3145 3144 3142 3142 3145 3146 3145 3144 3143 3143 3143 3143 3143 3144 3144 3143 3144 3144 3145 3146 3146 3147 3148 3148 3149 3150 3152 3153 3153 3154 3155 3155 3155 3156 3156 3157 3158 3158 3158 3158 3158 3158 3158 3158 3159 3159 3159 3159 3159 3159 3159 3159 3160 3160 3160 3160
3154 3155 3155 3156 3156 3156 3155 3155 3155 3155 3155 3154 3154 3153 3152 3151 3150 3149 3148 3147 3147 3145 3144 3144 3143 3143 3145 3145 3145 3145 3145 3143 3142 3142 3144 3143 3142 3141 3140 3140 3139 3139 3140 3140 3140 3140 3141 3142 3144 3144 3145 3146 3146 3146 3148 3150 3151 3151 3152 3153 3153 3153 3154 3155 3156 3156 3156 3156 3157 3157 3157 3157 3157 3158 3158 3158 3158 3158 3158 3158 3158 3159 3160 3160 3160
3154 3154 3154 3155 3154 3154 3154 3154 3154 3154 3154 3153 3152 3152 3151 3150 3149 3148 3147 3146 3146 3144 3143 3143 3143 3143 3144 3144 3144 3144 3144 3142 3141 3140 3141 3141 3140 3138 3137 3137 3136 3135 3136 3137 3137 3137 3138 3139 3141 3143 3143 3144 3144 3144 3146 3147 3148 3149 3150 3151 3151 3151 3153 3153 3154 3154 3154 3155 3156 3156 3156 3156 3156 3157 3157 3157 3157 3157 3157 3157 3157 3158 3159 3160 3160
3153 3153 3153 3153 3153 3153 3153 3153 3153 3153 3152 3152 3151 3151 3150 3149 3148 3147 3146 3146 3145 3143 3143 3143 3144 3143 3143 3142 3142 3142 3141 3140 3139 3138 3137 3138 3137 3136 3134 3134 3133 3132 3132 3133 3134 3134 3135 3136 3138 3140 3142 3141 3141 3141 3143 3145 3146 3147 3148 3149 3149 3150 3151 3152 3152 3152 3153 3153 3154 3154 3155 3155 3155 3156 3156 3156 3156 3156 3156 3156 3156 3157 3158 3159 3160
3151 3152 3152 3152 3152 3152 3151 3151 3151 3151 3151 3150 3150 3149 3149 3148 3147 3146 3145 3145 3144 3143 3143 3143 3143 3142 3142 3141 3140 3140 3139 3138 3138 3136 3135 3134 3133 3133 3132 3131 3130 3129 3129 3129 3130 3130 3131 3133 3134 3136 3137 3137 3136 3139 3141 3143 3144 3145 3146 3146 3148 3149 3150 3151 3151 3151 3152 3152 3152 3153 3153 3153 3154 3154 3154 3155 3155 3155 3156 3156 3156 3157 3157 3158 3159
3150 3150 3150 3150 3150 3150 3150 3150 3150 3150 3149 3149 3148 3148 3147 3147 3146 3145 3144 3144 3144 3143 3143 3143 3142 3141 3140 3139 3138 3137 3136 3136 3136 3135 3133 3131 3130 3129 3129 3128 3126 3126 3125 3125 3127 3128 3128 3130 3131 3131 3132 3133 3134 3137 3139 3140 3142 3143 3144 3144 3146 3147 3148 3149 3150 3150 3150 3150 3150 3151 3152 3152 3153 3153 3153 3154 3154 3154 3155 3155 3155 3156 3156 3157 3158
3149 3149 3148 3148 3148 3148 3148 3148 3148 3148 3148 3147 3147 3147 3146 3146 3145 3144 3143 3143 3143 3142 3142 3141 3140 3139 3138 3137 3136 3135 3134 3133 3133 3132 3130 3129 3127 3125 3125 3124 3122 3121 3121 3122 3123 3125 3126 3127 3128 3129 3130 3131 3133 3135 3136 3138 3139 3141 3142 3142 3144 3145 3146 3147 3148 3148 3148 3149 3149 3150 3151 3151 3152 3152 3152 3153 3153 3153 3154 3154 3155 3155 3155 3155 3157
3147 3147 3147 3146 3146 3146 3146 3146 3146 3147 3146 3146 3146 3145 3145 3144 3143 3143 3143 3142 3142 3141 3140 3139 3138 3137 3136 3135 3133 3132 3132 3131 3130 3129 3128 3126 3124 3123 3122 3120 3118 3117 3117 3117 3119 3121 3123 3124 3126 3127 3129 3130 3131 3132 3133 3134 3135 3137 3139 3141 3142 3144 3144 3145 3146 3147 3147 3147 3148 3149 3150 3150 3151 3151 3151 3151 3152 3153 3153 3154 3154 3154 3154 3155 3155
3145 3145 3145 3145 3145 3145 3145 3145 3145 3145 3145 3144 3144 3143 3143 3142 3142 3141 3141 3141 3141 3140 3138 3137 3136 3135 3134 3132 3130 3128 3128 3128 3127 3126 3125 3124 3123 3121 3120 3118 3116 3115 3115 3115 3116 3118 3120 3122 3124 3125 3127 3128 3129 3130 3130 3130 3132 3134 3136 3139 3140 3141 3142 3143 3144 3145 3146 3146 3147 3148 3148 3149 3149 3150 3150 3150 3151 3152 3152 3152 3152 3152 3153 3154 3154